Weather History for Tacoma Narrows, WA

Change the Weather History Date:

Saturday, March 23, 2013

  Actual Average Record
Temperature  
Mean Temperature 42 °F -  
Max Temperature 50 °F 50 °F 60 °F (2011)
Min Temperature 35 °F 39 °F 32 °F (2012)
Degree Days  
Heating Degree Days 24    
Moisture  
Dew Point 28 °F    
Average Humidity 65    
Maximum Humidity 93    
Minimum Humidity 28    
Precipitation  
Precipitation 0.00 in - - ()
Sea Level Pressure  
Sea Level Pressure 30.37 in    
Wind  
Wind Speed 2 mph (South)    
Max Wind Speed 6 mph    
Max Gust Speed -    
Visibility 10 miles    
Events      
Averages and records for this station are not official NWS values.
T = Trace of Precipitation, MM = Missing Value Source: NWS Daily Summary

Daily Weather History Graph

Daily Weather History Graph

Search for Another Location

Airport:

Trip Planner

Search our weather history database for the weather conditions in past years. The results will help you decide how hot, cold, wet, or windy it might be!

Date:

Astronomy

Mar. 23, 2013 Rise Set
Actual Time 7:06 AM PDT 7:27 PM PDT
Civil Twilight 6:35 AM PDT 7:58 PM PDT
Nautical Twilight 5:59 AM PDT 8:34 PM PDT
Astronomical Twilight 5:22 AM PDT 9:12 PM PDT
Moon 3:48 PM PDT 4:59 AM PDT
Length of Visible Light 13h 22m
Length of Day
12h 21m
Waxing Gibbous, 86% of the Moon is Illuminated
Mar 23
Waxing Gibbous
Mar 27
Full
Apr 2
Last Quarter
Apr 10
New
Apr 18
First Quarter

Hourly Weather History & Observations

Time (PDT) Temp. Windchill Dew Point Humidity Pressure Visibility Wind Dir Wind Speed Gust Speed Precip Events Conditions
12:53 AM 35.1 °F - 30.9 °F 85% 30.39 in 10.0 mi Calm Calm - N/A   Scattered Clouds
1:53 AM 37.0 °F 34.5 °F 32.0 °F 82% 30.39 in 10.0 mi SSE 3.5 mph - N/A   Clear
2:08 AM 35.6 °F - 32.0 °F 87% 30.39 in 10.0 mi Calm Calm - N/A   Scattered Clouds
2:17 AM 35.6 °F 31.7 °F 32.0 °F 87% 30.39 in 10.0 mi South 4.6 mph - N/A   Mostly Cloudy
2:53 AM 37.0 °F 32.4 °F 33.1 °F 86% 30.40 in 10.0 mi South 5.8 mph - N/A   Overcast
3:35 AM 35.6 °F 31.7 °F 33.8 °F 93% 30.39 in 10.0 mi South 4.6 mph - N/A   Overcast
3:53 AM 36.0 °F 33.3 °F 32.0 °F 86% 30.39 in 10.0 mi South 3.5 mph - N/A   Scattered Clouds
4:53 AM 36.0 °F - 32.0 °F 86% 30.39 in 10.0 mi Calm Calm - N/A   Clear
5:53 AM 35.1 °F 32.2 °F 32.0 °F 89% 30.39 in 10.0 mi South 3.5 mph - N/A   Clear
6:53 AM 36.0 °F - 30.9 °F 82% 30.40 in 10.0 mi Calm Calm - N/A   Clear
7:53 AM 36.0 °F - 30.0 °F 79% 30.40 in 10.0 mi Calm Calm - N/A   Clear
8:53 AM 37.0 °F - 30.0 °F 76% 30.40 in 10.0 mi Calm Calm - N/A   Scattered Clouds
9:53 AM 37.9 °F - 28.9 °F 70% 30.41 in 10.0 mi Calm Calm - N/A   Mostly Cloudy
10:53 AM 41.0 °F 39.0 °F 30.9 °F 67% 30.40 in 10.0 mi Variable 3.5 mph - N/A   Overcast
11:53 AM 42.1 °F 39.2 °F 28.9 °F 60% 30.40 in 10.0 mi Variable 4.6 mph - N/A   Overcast
12:53 PM 44.1 °F 41.5 °F 28.9 °F 55% 30.39 in 10.0 mi SSW 4.6 mph - N/A   Scattered Clouds
1:53 PM 46.0 °F 43.1 °F 28.0 °F 50% 30.37 in 10.0 mi Variable 5.8 mph - N/A   Scattered Clouds
2:53 PM 48.0 °F - 23.0 °F 37% 30.35 in 10.0 mi Variable 5.8 mph - N/A   Clear
3:53 PM 48.0 °F - 25.0 °F 41% 30.35 in 10.0 mi South 3.5 mph - N/A   Partly Cloudy
4:53 PM 48.9 °F - 21.0 °F 33% 30.33 in 10.0 mi WSW 4.6 mph - N/A   Scattered Clouds
5:53 PM 48.9 °F - 17.1 °F 28% 30.32 in 10.0 mi Variable 3.5 mph - N/A   Clear
6:53 PM 46.9 °F - 19.0 °F 33% 30.32 in 10.0 mi Calm Calm - N/A   Clear
7:53 PM 44.1 °F - 21.9 °F 42% 30.31 in 10.0 mi Calm Calm - N/A   Clear
8:53 PM 43.0 °F - 23.0 °F 45% 30.31 in 10.0 mi Calm Calm - N/A   Clear
9:53 PM 42.1 °F 40.2 °F 27.0 °F 55% 30.32 in 10.0 mi NNE 3.5 mph - N/A   Clear
10:53 PM 39.9 °F - 26.1 °F 58% 30.32 in 10.0 mi Calm Calm - N/A   Clear
11:53 PM 39.0 °F - 32.0 °F 76% 30.31 in 10.0 mi Calm Calm - N/A   Clear